Donnes mto: Actuelle vendredi, 14/12/2018 20:55
Date Horaire Temp. E. Hum. E. P.atmo. Pluie Vent Direction Direction Ensoleilleme Ev.Tr. Solaire P. de rose Temp au vent Rafales
14/12/2018 20:55 0,1 C 97 % 1024,2 hPa 0,0 mm 0,0 km/h (0 Bft) NO 310 0 min 0,000 mm 0 W/m -0,3 C 0,1 C 0,0 km/h (0 Bft)
14/12/2018 20:50 0,2 C 97 % 1024,1 hPa 0,0 mm 0,0 km/h (0 Bft) NO 309 0 min 0,000 mm 0 W/m -0,2 C 0,2 C 0,0 km/h (0 Bft)
14/12/2018 20:45 0,2 C 97 % 1024,1 hPa 0,0 mm 0,0 km/h (0 Bft) NO 309 0 min 0,000 mm 0 W/m -0,2 C 0,2 C 0,0 km/h (0 Bft)
14/12/2018 20:40 0,2 C 97 % 1024,2 hPa 0,0 mm 0,0 km/h (0 Bft) NO 310 0 min 0,000 mm 0 W/m -0,2 C 0,2 C 0,0 km/h (0 Bft)
14/12/2018 20:35 0,2 C 97 % 1024,2 hPa 0,0 mm 0,0 km/h (0 Bft) NO 310 0 min 0,000 mm 0 W/m -0,2 C 0,2 C 0,0 km/h (0 Bft)
14/12/2018 20:30 0,2 C 97 % 1024,1 hPa 0,0 mm 0,0 km/h (0 Bft) NO 310 0 min 0,000 mm 0 W/m -0,2 C 0,2 C 0,0 km/h (0 Bft)
14/12/2018 20:25 0,2 C 97 % 1024,1 hPa 0,0 mm 0,0 km/h (0 Bft) NO 310 0 min 0,000 mm 0 W/m -0,2 C 0,2 C 0,0 km/h (0 Bft)
14/12/2018 20:20 0,2 C 97 % 1024,1 hPa 0,0 mm 0,0 km/h (0 Bft) NO 310 0 min 0,000 mm 0 W/m -0,2 C 0,2 C 0,0 km/h (0 Bft)
14/12/2018 20:15 0,2 C 97 % 1024,2 hPa 0,0 mm 0,0 km/h (0 Bft) NO 310 0 min 0,000 mm 0 W/m -0,2 C 0,2 C 0,0 km/h (0 Bft)
14/12/2018 20:10 0,2 C 97 % 1024,2 hPa 0,0 mm 0,0 km/h (0 Bft) NO 308 0 min 0,000 mm 0 W/m -0,2 C 0,2 C 0,0 km/h (0 Bft)
14/12/2018 20:05 0,2 C 97 % 1024,1 hPa 0,0 mm 0,0 km/h (0 Bft) NO 310 0 min 0,000 mm 0 W/m -0,2 C 0,2 C 0,0 km/h (0 Bft)
14/12/2018 20:00 0,3 C 97 % 1024,1 hPa 0,0 mm 0,0 km/h (0 Bft) NO 310 0 min 0,000 mm 0 W/m -0,1 C 0,3 C 0,0 km/h (0 Bft)
14/12/2018 19:55 0,3 C 97 % 1023,9 hPa 0,0 mm 0,5 km/h (0 Bft) NO 310 0 min 0,000 mm 0 W/m -0,1 C 0,3 C 1,6 km/h (1 Bft)
14/12/2018 19:50 0,3 C 97 % 1023,9 hPa 0,0 mm 0,1 km/h (0 Bft) NO 308 0 min 0,000 mm 0 W/m -0,1 C 0,3 C 1,6 km/h (1 Bft)
14/12/2018 19:45 0,3 C 97 % 1023,9 hPa 0,0 mm 1,2 km/h (1 Bft) NO 309 0 min 0,000 mm 0 W/m -0,1 C 0,3 C 4,8 km/h (1 Bft)
14/12/2018 19:40 0,4 C 97 % 1023,8 hPa 0,0 mm 0,9 km/h (0 Bft) NO 309 0 min 0,000 mm 0 W/m -0,0 C 0,4 C 6,4 km/h (2 Bft)
14/12/2018 19:35 0,3 C 98 % 1023,8 hPa 0,0 mm 0,4 km/h (0 Bft) NO 310 0 min 0,000 mm 0 W/m 0,0 C 0,3 C 1,6 km/h (1 Bft)
14/12/2018 19:30 0,4 C 98 % 1023,6 hPa 0,0 mm 2,3 km/h (1 Bft) NO 310 0 min 0,000 mm 0 W/m 0,1 C 0,4 C 6,4 km/h (2 Bft)
14/12/2018 19:25 0,4 C 98 % 1023,6 hPa 0,0 mm 0,0 km/h (0 Bft) NO 308 0 min 0,000 mm 0 W/m 0,1 C 0,4 C 0,0 km/h (0 Bft)
14/12/2018 19:20 0,3 C 98 % 1023,6 hPa 0,0 mm 1,8 km/h (1 Bft) NO 310 0 min 0,000 mm 0 W/m 0,0 C 0,3 C 6,4 km/h (2 Bft)
14/12/2018 19:15 0,3 C 97 % 1023,5 hPa 0,0 mm 1,3 km/h (1 Bft) N-NO 346 0 min 0,000 mm 0 W/m -0,1 C 0,3 C 6,4 km/h (2 Bft)
14/12/2018 19:10 0,3 C 98 % 1023,4 hPa 0,0 mm 0,0 km/h (0 Bft) E-NE 59 0 min 0,000 mm 0 W/m 0,0 C 0,3 C 0,0 km/h (0 Bft)
14/12/2018 19:05 0,4 C 98 % 1023,3 hPa 0,0 mm 0,0 km/h (0 Bft) E-NE 58 0 min 0,000 mm 0 W/m 0,1 C 0,4 C 0,0 km/h (0 Bft)
14/12/2018 19:00 0,4 C 98 % 1023,3 hPa 0,0 mm 0,0 km/h (0 Bft) E-NE 60 0 min 0,000 mm 0 W/m 0,1 C 0,4 C 0,0 km/h (0 Bft)
14/12/2018 18:55 0,4 C 98 % 1023,3 hPa 0,0 mm 0,0 km/h (0 Bft) E-NE 60 0 min 0,000 mm 0 W/m 0,1 C 0,4 C 0,0 km/h (0 Bft)
14/12/2018 18:50 0,3 C 98 % 1023,3 hPa 0,0 mm 0,0 km/h (0 Bft) E-NE 59 0 min 0,000 mm 0 W/m 0,0 C 0,3 C 0,0 km/h (0 Bft)
14/12/2018 18:45 0,3 C 98 % 1023,2 hPa 0,0 mm 0,0 km/h (0 Bft) E-NE 58 0 min 0,000 mm 0 W/m 0,0 C 0,3 C 0,0 km/h (0 Bft)
14/12/2018 18:40 0,3 C 98 % 1023,1 hPa 0,0 mm 0,0 km/h (0 Bft) E-NE 59 0 min 0,000 mm 0 W/m 0,0 C 0,3 C 0,0 km/h (0 Bft)
14/12/2018 18:35 0,3 C 98 % 1023,0 hPa 0,0 mm 0,0 km/h (0 Bft) E-NE 59 0 min 0,000 mm 0 W/m 0,0 C 0,3 C 0,0 km/h (0 Bft)
14/12/2018 18:30 0,3 C 98 % 1023,1 hPa 0,0 mm 0,0 km/h (0 Bft) E-NE 60 0 min 0,000 mm 0 W/m 0,0 C 0,3 C 0,0 km/h (0 Bft)
14/12/2018 18:25 0,2 C 98 % 1022,9 hPa 0,0 mm 0,0 km/h (0 Bft) E-NE 60 0 min 0,000 mm 0 W/m -0,1 C 0,2 C 0,0 km/h (0 Bft)
14/12/2018 18:20 0,2 C 98 % 1022,9 hPa 0,0 mm 0,2 km/h (0 Bft) E-NE 60 0 min 0,000 mm 0 W/m -0,1 C 0,2 C 1,6 km/h (1 Bft)
14/12/2018 18:15 0,2 C 98 % 1022,7 hPa 0,0 mm 0,0 km/h (0 Bft) E-NE 60 0 min 0,000 mm 0 W/m -0,1 C 0,2 C 0,0 km/h (0 Bft)
14/12/2018 18:10 0,2 C 98 % 1022,6 hPa 0,0 mm 0,0 km/h (0 Bft) E-NE 60 0 min 0,000 mm 0 W/m -0,1 C 0,2 C 1,6 km/h (1 Bft)
14/12/2018 18:05 0,2 C 98 % 1022,5 hPa 0,0 mm 0,2 km/h (0 Bft) E-NE 58 0 min 0,000 mm 0 W/m -0,1 C 0,2 C 3,2 km/h (1 Bft)
14/12/2018 18:00 0,2 C 98 % 1022,6 hPa 0,0 mm 0,0 km/h (0 Bft) E-NE 60 0 min 0,000 mm 0 W/m -0,1 C 0,2 C 0,0 km/h (0 Bft)
14/12/2018 17:55 0,2 C 98 % 1022,5 hPa 0,0 mm 0,3 km/h (0 Bft) E-NE 60 0 min 0,000 mm 0 W/m -0,1 C 0,2 C 3,2 km/h (1 Bft)
14/12/2018 17:50 0,2 C 98 % 1022,4 hPa 0,0 mm 2,7 km/h (1 Bft) E-NE 59 0 min 0,000 mm 0 W/m -0,1 C 0,2 C 8,0 km/h (2 Bft)
14/12/2018 17:45 0,2 C 98 % 1022,4 hPa 0,0 mm 3,0 km/h (1 Bft) NE 56 0 min 0,000 mm 0 W/m -0,1 C 0,2 C 8,0 km/h (2 Bft)
14/12/2018 17:40 0,2 C 98 % 1022,4 hPa 0,0 mm 0,0 km/h (0 Bft) N-NO 327 0 min 0,000 mm 0 W/m -0,1 C 0,2 C 0,0 km/h (0 Bft)
14/12/2018 17:35 0,2 C 98 % 1022,4 hPa 0,0 mm 0,0 km/h (0 Bft) NO 314 0 min 0,000 mm 0 W/m -0,1 C 0,2 C 0,0 km/h (0 Bft)
14/12/2018 17:30 0,3 C 98 % 1022,4 hPa 0,0 mm 0,0 km/h (0 Bft) NO 314 0 min 0,000 mm 0 W/m 0,0 C 0,3 C 0,0 km/h (0 Bft)
14/12/2018 17:25 0,3 C 98 % 1022,5 hPa 0,0 mm 0,0 km/h (0 Bft) NO 311 0 min 0,000 mm 0 W/m 0,0 C 0,3 C 0,0 km/h (0 Bft)
14/12/2018 17:20 0,3 C 98 % 1022,4 hPa 0,0 mm 0,0 km/h (0 Bft) NO 309 0 min 0,000 mm 0 W/m 0,0 C 0,3 C 0,0 km/h (0 Bft)
14/12/2018 17:15 0,3 C 98 % 1022,4 hPa 0,0 mm 0,0 km/h (0 Bft) NO 310 0 min 0,000 mm 0 W/m 0,0 C 0,3 C 0,0 km/h (0 Bft)
14/12/2018 17:10 0,3 C 98 % 1022,4 hPa 0,0 mm 0,0 km/h (0 Bft) NO 308 0 min 0,000 mm 0 W/m 0,0 C 0,3 C 0,0 km/h (0 Bft)
14/12/2018 17:05 0,3 C 98 % 1022,5 hPa 0,0 mm 0,0 km/h (0 Bft) NO 309 0 min 0,000 mm 0 W/m 0,0 C 0,3 C 0,0 km/h (0 Bft)
14/12/2018 17:00 0,3 C 98 % 1022,6 hPa 0,0 mm 0,0 km/h (0 Bft) NO 310 0 min 0,000 mm 0 W/m 0,0 C 0,3 C 0,0 km/h (0 Bft)
14/12/2018 16:55 0,3 C 98 % 1022,6 hPa 0,0 mm 0,0 km/h (0 Bft) NO 310 0 min 0,000 mm 5 W/m 0,0 C 0,3 C 0,0 km/h (0 Bft)
14/12/2018 16:50 0,3 C 98 % 1022,6 hPa 0,0 mm 0,0 km/h (0 Bft) O-NO 297 0 min 0,000 mm 5 W/m 0,0 C 0,3 C 0,0 km/h (0 Bft)
14/12/2018 16:45 0,3 C 98 % 1022,6 hPa 0,0 mm 0,0 km/h (0 Bft) O-NO 298 0 min 0,000 mm 9 W/m 0,0 C 0,3 C 0,0 km/h (0 Bft)
14/12/2018 16:40 0,3 C 98 % 1022,6 hPa 0,0 mm 1,6 km/h (1 Bft) O-NO 297 0 min 0,000 mm 11 W/m 0,0 C 0,3 C 6,4 km/h (2 Bft)
14/12/2018 16:35 0,4 C 98 % 1022,7 hPa 0,0 mm 2,7 km/h (1 Bft) N-NO 337 0 min 0,000 mm 12 W/m 0,1 C 0,4 C 8,0 km/h (2 Bft)
14/12/2018 16:30 0,4 C 98 % 1022,8 hPa 0,0 mm 0,0 km/h (0 Bft) N 4 0 min 0,000 mm 11 W/m 0,1 C 0,4 C 0,0 km/h (0 Bft)
14/12/2018 16:25 0,4 C 98 % 1022,8 hPa 0,0 mm 0,1 km/h (0 Bft) N 4 0 min 0,000 mm 12 W/m 0,1 C 0,4 C 1,6 km/h (1 Bft)
14/12/2018 16:20 0,4 C 98 % 1022,8 hPa 0,0 mm 1,2 km/h (1 Bft) N 4 0 min 0,000 mm 21 W/m 0,1 C 0,4 C 6,4 km/h (2 Bft)
14/12/2018 16:15 0,5 C 98 % 1022,6 hPa 0,0 mm 0,1 km/h (0 Bft) NO 304 0 min 0,000 mm 26 W/m 0,2 C 0,5 C 1,6 km/h (1 Bft)
14/12/2018 16:10 0,5 C 98 % 1022,7 hPa 0,0 mm 0,3 km/h (0 Bft) NO 305 0 min 0,000 mm 25 W/m 0,2 C 0,5 C 3,2 km/h (1 Bft)
14/12/2018 16:05 0,5 C 98 % 1022,4 hPa 0,0 mm 0,4 km/h (0 Bft) O-NO 291 0 min 0,025 mm 23 W/m 0,2 C 0,5 C 3,2 km/h (1 Bft)
14/12/2018 16:00 0,5 C 98 % 1022,4 hPa 0,0 mm 1,8 km/h (1 Bft) O-NO 291 0 min 0,000 mm 23 W/m 0,2 C 0,5 C 8,0 km/h (2 Bft)
14/12/2018 15:55 0,4 C 98 % 1022,5 hPa 0,0 mm 1,0 km/h (0 Bft) NO 325 0 min 0,000 mm 21 W/m 0,1 C 0,4 C 6,4 km/h (2 Bft)
14/12/2018 15:50 0,4 C 98 % 1022,4 hPa 0,0 mm 2,1 km/h (1 Bft) N-NO 335 0 min 0,000 mm 25 W/m 0,1 C 0,4 C 9,7 km/h (2 Bft)
14/12/2018 15:45 0,3 C 98 % 1022,4 hPa 0,0 mm 1,4 km/h (1 Bft) NO 312 0 min 0,000 mm 28 W/m 0,0 C 0,3 C 8,0 km/h (2 Bft)
14/12/2018 15:40 0,3 C 98 % 1022,4 hPa 0,0 mm 5,1 km/h (1 Bft) NO 305 0 min 0,000 mm 44 W/m 0,0 C -1,3 C 11,3 km/h (2 Bft)
14/12/2018 15:35 0,4 C 98 % 1022,4 hPa 0,0 mm 4,1 km/h (1 Bft) NO 318 0 min 0,000 mm 40 W/m 0,1 C 0,4 C 11,3 km/h (2 Bft)
14/12/2018 15:30 0,4 C 98 % 1022,1 hPa 0,0 mm 1,6 km/h (1 Bft) O-NO 301 0 min 0,000 mm 32 W/m 0,1 C 0,4 C 8,0 km/h (2 Bft)
14/12/2018 15:25 0,3 C 98 % 1021,9 hPa 0,0 mm 0,9 km/h (0 Bft) N-NO 344 0 min 0,000 mm 35 W/m 0,0 C 0,3 C 3,2 km/h (1 Bft)
14/12/2018 15:20 0,3 C 98 % 1021,7 hPa 0,0 mm 1,4 km/h (1 Bft) N-NO 341 0 min 0,000 mm 39 W/m 0,0 C 0,3 C 6,4 km/h (2 Bft)
14/12/2018 15:15 0,3 C 98 % 1021,6 hPa 0,0 mm 3,8 km/h (1 Bft) O-NO 301 0 min 0,000 mm 49 W/m 0,0 C 0,3 C 9,7 km/h (2 Bft)
14/12/2018 15:10 0,5 C 98 % 1021,5 hPa 0,0 mm 2,6 km/h (1 Bft) O-NO 302 0 min 0,000 mm 58 W/m 0,2 C 0,5 C 8,0 km/h (2 Bft)
14/12/2018 15:05 0,5 C 98 % 1021,3 hPa 0,0 mm 2,5 km/h (1 Bft) O-NO 299 0 min 0,025 mm 42 W/m 0,2 C 0,5 C 8,0 km/h (2 Bft)
14/12/2018 15:00 0,5 C 98 % 1021,2 hPa 0,0 mm 2,5 km/h (1 Bft) O-NO 293 0 min 0,000 mm 49 W/m 0,2 C 0,5 C 8,0 km/h (2 Bft)
14/12/2018 14:55 0,5 C 98 % 1021,1 hPa 0,0 mm 2,9 km/h (1 Bft) O-NO 297 0 min 0,000 mm 53 W/m 0,2 C 0,5 C 8,0 km/h (2 Bft)
14/12/2018 14:50 0,4 C 98 % 1020,9 hPa 0,0 mm 0,5 km/h (0 Bft) O-NO 299 0 min 0,000 mm 56 W/m 0,1 C 0,4 C 6,4 km/h (2 Bft)
14/12/2018 14:45 0,4 C 98 % 1020,7 hPa 0,0 mm 0,7 km/h (0 Bft) O-NO 302 0 min 0,000 mm 53 W/m 0,1 C 0,4 C 6,4 km/h (2 Bft)
14/12/2018 14:40 0,5 C 98 % 1020,7 hPa 0,0 mm 4,9 km/h (1 Bft) NO 324 0 min 0,000 mm 54 W/m 0,2 C -1,0 C 9,7 km/h (2 Bft)
14/12/2018 14:35 0,6 C 98 % 1020,5 hPa 0,0 mm 2,8 km/h (1 Bft) O-NO 288 0 min 0,000 mm 69 W/m 0,3 C 0,6 C 6,4 km/h (2 Bft)
14/12/2018 14:30 0,4 C 98 % 1020,5 hPa 0,0 mm 2,2 km/h (1 Bft) NO 310 0 min 0,000 mm 63 W/m 0,1 C 0,4 C 8,0 km/h (2 Bft)
14/12/2018 14:25 0,4 C 98 % 1020,4 hPa 0,0 mm 0,1 km/h (0 Bft) NO 326 0 min 0,000 mm 56 W/m 0,1 C 0,4 C 1,6 km/h (1 Bft)
14/12/2018 14:20 0,3 C 98 % 1020,4 hPa 0,0 mm 4,9 km/h (1 Bft) NO 326 0 min 0,000 mm 62 W/m 0,0 C -1,2 C 9,7 km/h (2 Bft)
14/12/2018 14:15 0,3 C 98 % 1020,2 hPa 0,0 mm 5,9 km/h (2 Bft) NE 38 0 min 0,000 mm 60 W/m 0,0 C -1,6 C 9,7 km/h (2 Bft)
14/12/2018 14:10 0,4 C 98 % 1020,0 hPa 0,0 mm 6,2 km/h (2 Bft) NE 36 0 min 0,000 mm 58 W/m 0,1 C -1,6 C 9,7 km/h (2 Bft)
14/12/2018 14:05 0,4 C 98 % 1020,2 hPa 0,0 mm 5,1 km/h (1 Bft) N-NE 32 0 min 0,026 mm 62 W/m 0,1 C -1,2 C 8,0 km/h (2 Bft)
14/12/2018 14:00 0,5 C 98 % 1020,2 hPa 0,0 mm 4,9 km/h (1 Bft) N-NE 22 0 min 0,000 mm 62 W/m 0,2 C -1,0 C 9,7 km/h (2 Bft)
14/12/2018 13:55 0,5 C 98 % 1020,2 hPa 0,0 mm 1,8 km/h (1 Bft) NE 49 0 min 0,000 mm 62 W/m 0,2 C 0,5 C 8,0 km/h (2 Bft)
14/12/2018 13:50 0,4 C 98 % 1020,2 hPa 0,0 mm 3,3 km/h (1 Bft) N 354 0 min 0,000 mm 65 W/m 0,1 C 0,4 C 8,0 km/h (2 Bft)
14/12/2018 13:45 0,4 C 98 % 1020,1 hPa 0,0 mm 4,2 km/h (1 Bft) NE 37 0 min 0,000 mm 65 W/m 0,1 C 0,4 C 8,0 km/h (2 Bft)
14/12/2018 13:40 0,4 C 98 % 1020,2 hPa 0,0 mm 4,9 km/h (1 Bft) E-NE 66 0 min 0,000 mm 72 W/m 0,1 C -1,1 C 9,7 km/h (2 Bft)
14/12/2018 13:35 0,5 C 98 % 1020,3 hPa 0,0 mm 4,8 km/h (1 Bft) N-NE 12 0 min 0,000 mm 69 W/m 0,2 C -0,9 C 8,0 km/h (2 Bft)
14/12/2018 13:30 0,6 C 98 % 1020,3 hPa 0,0 mm 1,9 km/h (1 Bft) E 88 0 min 0,000 mm 65 W/m 0,3 C 0,6 C 6,4 km/h (2 Bft)
14/12/2018 13:25 0,6 C 98 % 1020,4 hPa 0,0 mm 2,3 km/h (1 Bft) N-NO 347 0 min 0,000 mm 63 W/m 0,3 C 0,6 C 6,4 km/h (2 Bft)
14/12/2018 13:20 0,6 C 98 % 1020,4 hPa 0,0 mm 2,7 km/h (1 Bft) N 9 0 min 0,000 mm 63 W/m 0,3 C 0,6 C 8,0 km/h (2 Bft)
14/12/2018 13:15 0,6 C 98 % 1020,4 hPa 0,0 mm 1,6 km/h (1 Bft) NO 325 0 min 0,000 mm 54 W/m 0,3 C 0,6 C 6,4 km/h (2 Bft)
14/12/2018 13:10 0,6 C 98 % 1020,5 hPa 0,0 mm 2,0 km/h (1 Bft) N-NO 345 0 min 0,000 mm 54 W/m 0,3 C 0,6 C 8,0 km/h (2 Bft)
14/12/2018 13:05 0,6 C 98 % 1020,6 hPa 0,0 mm 3,7 km/h (1 Bft) O-NO 286 0 min 0,025 mm 53 W/m 0,3 C 0,6 C 8,0 km/h (2 Bft)
14/12/2018 13:00 0,5 C 98 % 1020,4 hPa 0,0 mm 1,8 km/h (1 Bft) NO 310 0 min 0,000 mm 58 W/m 0,2 C 0,5 C 6,4 km/h (2 Bft)
14/12/2018 12:55 0,4 C 98 % 1020,5 hPa 0,0 mm 1,7 km/h (1 Bft) N 354 0 min 0,000 mm 60 W/m 0,1 C 0,4 C 6,4 km/h (2 Bft)
14/12/2018 12:50 0,4 C 98 % 1020,4 hPa 0,0 mm 2,5 km/h (1 Bft) N 354 0 min 0,000 mm 72 W/m 0,1 C 0,4 C 8,0 km/h (2 Bft)
14/12/2018 12:45 0,3 C 98 % 1020,4 hPa 0,0 mm 2,3 km/h (1 Bft) NO 312 0 min 0,000 mm 83 W/m 0,0 C 0,3 C 8,0 km/h (2 Bft)
14/12/2018 12:40 0,3 C 98 % 1020,3 hPa 0,0 mm 3,4 km/h (1 Bft) NO 314 0 min 0,000 mm 88 W/m 0,0 C 0,3 C 8,0 km/h (2 Bft)
14/12/2018 12:35 0,3 C 98 % 1020,3 hPa 0,0 mm 2,7 km/h (1 Bft) O-NO 295 0 min 0,000 mm 77 W/m 0,0 C 0,3 C 8,0 km/h (2 Bft)
14/12/2018 12:30 0,3 C 98 % 1020,1 hPa 0,0 mm 2,6 km/h (1 Bft) O-SO 256 0 min 0,000 mm 81 W/m 0,0 C 0,3 C 9,7 km/h (2 Bft)
14/12/2018 12:25 0,3 C 98 % 1020,0 hPa 0,0 mm 1,9 km/h (1 Bft) O-NO 289 0 min 0,000 mm 77 W/m 0,0 C 0,3 C 8,0 km/h (2 Bft)
14/12/2018 12:20 0,2 C 98 % 1019,9 hPa 0,0 mm 2,2 km/h (1 Bft) O-NO 289 0 min 0,000 mm 81 W/m -0,1 C 0,2 C 8,0 km/h (2 Bft)
14/12/2018 12:15 0,2 C 98 % 1019,8 hPa 0,0 mm 2,6 km/h (1 Bft) NO 316 0 min 0,000 mm 84 W/m -0,1 C 0,2 C 9,7 km/h (2 Bft)
14/12/2018 12:10 0,2 C 98 % 1019,8 hPa 0,0 mm 5,1 km/h (1 Bft) O-SO 253 0 min 0,000 mm 79 W/m -0,1 C -1,4 C 11,3 km/h (2 Bft)
14/12/2018 12:05 0,3 C 98 % 1019,7 hPa 0,0 mm 2,5 km/h (1 Bft) N-NO 340 0 min 0,026 mm 62 W/m 0,0 C 0,3 C 9,7 km/h (2 Bft)
14/12/2018 12:00 0,2 C 98 % 1019,6 hPa 0,0 mm 2,0 km/h (1 Bft) N-NO 345 0 min 0,000 mm 65 W/m -0,1 C 0,2 C 4,8 km/h (1 Bft)
14/12/2018 11:55 0,2 C 98 % 1019,6 hPa 0,0 mm 3,8 km/h (1 Bft) N 359 0 min 0,000 mm 74 W/m -0,1 C 0,2 C 8,0 km/h (2 Bft)
14/12/2018 11:50 0,2 C 98 % 1019,6 hPa 0,0 mm 3,0 km/h (1 Bft) N-NO 340 0 min 0,000 mm 65 W/m -0,1 C 0,2 C 9,7 km/h (2 Bft)
14/12/2018 11:45 0,2 C 98 % 1019,5 hPa 0,0 mm 4,0 km/h (1 Bft) N-NO 327 0 min 0,000 mm 70 W/m -0,1 C 0,2 C 11,3 km/h (2 Bft)
14/12/2018 11:40 0,2 C 98 % 1019,5 hPa 0,0 mm 2,4 km/h (1 Bft) O-NO 293 0 min 0,000 mm 76 W/m -0,1 C 0,2 C 8,0 km/h (2 Bft)
14/12/2018 11:35 0,2 C 98 % 1019,5 hPa 0,0 mm 4,5 km/h (1 Bft) O-NO 290 0 min 0,000 mm 74 W/m -0,1 C 0,2 C 11,3 km/h (2 Bft)
14/12/2018 11:30 0,3 C 98 % 1019,4 hPa 0,0 mm 4,0 km/h (1 Bft) O-NO 283 0 min 0,000 mm 67 W/m 0,0 C 0,3 C 8,0 km/h (2 Bft)
14/12/2018 11:25 0,4 C 98 % 1019,4 hPa 0,0 mm 2,8 km/h (1 Bft) O-NO 301 0 min 0,000 mm 67 W/m 0,1 C 0,4 C 8,0 km/h (2 Bft)
14/12/2018 11:20 0,4 C 98 % 1019,3 hPa 0,0 mm 1,5 km/h (1 Bft) NO 319 0 min 0,000 mm 54 W/m 0,1 C 0,4 C 6,4 km/h (2 Bft)
14/12/2018 11:15 0,4 C 98 % 1019,3 hPa 0,0 mm 1,9 km/h (1 Bft) NO 320 0 min 0,000 mm 56 W/m 0,1 C 0,4 C 6,4 km/h (2 Bft)
14/12/2018 11:10 0,3 C 98 % 1019,2 hPa 0,0 mm 2,7 km/h (1 Bft) N-NO 329 0 min 0,000 mm 54 W/m 0,0 C 0,3 C 6,4 km/h (2 Bft)
14/12/2018 11:05 0,3 C 98 % 1019,1 hPa 0,0 mm 1,5 km/h (1 Bft) N-NO 345 0 min 0,025 mm 62 W/m 0,0 C 0,3 C 6,4 km/h (2 Bft)
14/12/2018 11:00 0,3 C 98 % 1018,9 hPa 0,0 mm 2,8 km/h (1 Bft) N 11 0 min 0,000 mm 70 W/m 0,0 C 0,3 C 6,4 km/h (2 Bft)
14/12/2018 10:55 0,3 C 98 % 1018,9 hPa 0,0 mm 5,0 km/h (1 Bft) N-NE 33 0 min 0,000 mm 69 W/m 0,0 C -1,2 C 11,3 km/h (2 Bft)
14/12/2018 10:50 0,3 C 98 % 1018,8 hPa 0,0 mm 6,0 km/h (2 Bft) N-NE 25 0 min 0,000 mm 63 W/m 0,0 C -1,7 C 9,7 km/h (2 Bft)
14/12/2018 10:45 0,4 C 98 % 1018,8 hPa 0,0 mm 4,5 km/h (1 Bft) NE 39 0 min 0,000 mm 39 W/m 0,1 C 0,4 C 9,7 km/h (2 Bft)
14/12/2018 10:40 0,5 C 98 % 1018,7 hPa 0,0 mm 5,4 km/h (1 Bft) NE 53 0 min 0,000 mm 44 W/m 0,2 C -1,2 C 9,7 km/h (2 Bft)
14/12/2018 10:35 0,6 C 98 % 1018,8 hPa 0,0 mm 2,9 km/h (1 Bft) N 9 0 min 0,000 mm 44 W/m 0,3 C 0,6 C 8,0 km/h (2 Bft)
14/12/2018 10:30 0,7 C 98 % 1018,6 hPa 0,0 mm 2,9 km/h (1 Bft) N-NE 32 0 min 0,000 mm 39 W/m 0,4 C 0,7 C 9,7 km/h (2 Bft)
14/12/2018 10:25 0,6 C 98 % 1018,5 hPa 0,0 mm 1,7 km/h (1 Bft) NO 313 0 min 0,000 mm 30 W/m 0,3 C 0,6 C 6,4 km/h (2 Bft)
14/12/2018 10:20 0,6 C 98 % 1018,5 hPa 0,0 mm 1,9 km/h (1 Bft) NO 322 0 min 0,000 mm 30 W/m 0,3 C 0,6 C 6,4 km/h (2 Bft)
14/12/2018 10:15 0,6 C 98 % 1018,5 hPa 0,0 mm 0,0 km/h (0 Bft) NO 314 0 min 0,000 mm 30 W/m 0,3 C 0,6 C 0,0 km/h (0 Bft)
14/12/2018 10:10 0,6 C 98 % 1018,4 hPa 0,0 mm 0,1 km/h (0 Bft) NO 315 0 min 0,000 mm 28 W/m 0,3 C 0,6 C 1,6 km/h (1 Bft)
14/12/2018 10:05 0,5 C 98 % 1018,3 hPa 0,0 mm 1,6 km/h (1 Bft) NO 314 0 min 0,000 mm 12 W/m 0,2 C 0,5 C 3,2 km/h (1 Bft)
14/12/2018 10:00 0,5 C 98 % 1018,3 hPa 0,0 mm 2,1 km/h (1 Bft) N-NE 29 0 min 0,000 mm 35 W/m 0,2 C 0,5 C 6,4 km/h (2 Bft)
14/12/2018 09:55 0,4 C 98 % 1018,2 hPa 0,0 mm 4,0 km/h (1 Bft) N-NE 24 0 min 0,000 mm 28 W/m 0,1 C 0,4 C 8,0 km/h (2 Bft)
14/12/2018 09:50 0,4 C 98 % 1018,0 hPa 0,0 mm 4,9 km/h (1 Bft) NE 43 0 min 0,000 mm 25 W/m 0,1 C -1,1 C 8,0 km/h (2 Bft)
14/12/2018 09:45 0,4 C 98 % 1018,0 hPa 0,0 mm 5,8 km/h (2 Bft) NE 43 0 min 0,000 mm 21 W/m 0,1 C -1,5 C 9,7 km/h (2 Bft)
14/12/2018 09:40 0,4 C 98 % 1017,9 hPa 0,0 mm 4,9 km/h (1 Bft) N-NE 31 0 min 0,000 mm 25 W/m 0,1 C -1,1 C 9,7 km/h (2 Bft)
14/12/2018 09:35 0,3 C 98 % 1018,0 hPa 0,0 mm 4,0 km/h (1 Bft) N-NE 33 0 min 0,000 mm 37 W/m 0,0 C 0,3 C 11,3 km/h (2 Bft)
14/12/2018 09:30 0,3 C 98 % 1017,9 hPa 0,0 mm 2,0 km/h (1 Bft) N-NO 341 0 min 0,000 mm 35 W/m 0,0 C 0,3 C 8,0 km/h (2 Bft)
14/12/2018 09:25 0,3 C 98 % 1017,9 hPa 0,0 mm 2,5 km/h (1 Bft) N-NO 343 0 min 0,000 mm 37 W/m 0,0 C 0,3 C 8,0 km/h (2 Bft)
14/12/2018 09:20 0,2 C 98 % 1017,8 hPa 0,0 mm 1,8 km/h (1 Bft) N-NO 345 0 min 0,000 mm 30 W/m -0,1 C 0,2 C 6,4 km/h (2 Bft)
14/12/2018 09:15 0,2 C 98 % 1017,8 hPa 0,0 mm 2,4 km/h (1 Bft) N 359 0 min 0,000 mm 30 W/m -0,1 C 0,2 C 9,7 km/h (2 Bft)
14/12/2018 09:10 0,1 C 98 % 1017,7 hPa 0,0 mm 2,7 km/h (1 Bft) NO 324 0 min 0,000 mm 18 W/m -0,2 C 0,1 C 9,7 km/h (2 Bft)
14/12/2018 09:05 0,1 C 98 % 1017,7 hPa 0,0 mm 2,5 km/h (1 Bft) NO 320 0 min 0,000 mm 12 W/m -0,2 C 0,1 C 8,0 km/h (2 Bft)
14/12/2018 09:00 0,1 C 98 % 1017,5 hPa 0,0 mm 1,7 km/h (1 Bft) N-NO 327 0 min 0,000 mm 11 W/m -0,2 C 0,1 C 11,3 km/h (2 Bft)
14/12/2018 08:55 0,1 C 98 % 1017,4 hPa 0,0 mm 0,0 km/h (0 Bft) N 354 0 min 0,000 mm 7 W/m -0,2 C 0,1 C 0,0 km/h (0 Bft)
14/12/2018 08:50 0,1 C 98 % 1017,4 hPa 0,0 mm 2,3 km/h (1 Bft) N 4 0 min 0,000 mm 5 W/m -0,2 C 0,1 C 8,0 km/h (2 Bft)
14/12/2018 08:45 0,1 C 98 % 1017,2 hPa 0,0 mm 2,0 km/h (1 Bft) N-NE 18 0 min 0,000 mm 0 W/m -0,2 C 0,1 C 9,7 km/h (2 Bft)
14/12/2018 08:40 0,0 C 98 % 1017,1 hPa 0,0 mm 1,4 km/h (1 Bft) N-NO 345 0 min 0,000 mm 0 W/m -0,3 C 0,0 C 8,0 km/h (2 Bft)
14/12/2018 08:35 0,0 C 98 % 1017,0 hPa 0,0 mm 0,0 km/h (0 Bft) NO 314 0 min 0,000 mm 0 W/m -0,3 C 0,0 C 0,0 km/h (0 Bft)
14/12/2018 08:30 -0,1 C 98 % 1016,9 hPa 0,0 mm 0,0 km/h (0 Bft) NO 313 0 min 0,000 mm 0 W/m -0,4 C -0,1 C 0,0 km/h (0 Bft)
14/12/2018 08:25 -0,1 C 98 % 1016,9 hPa 0,0 mm 0,6 km/h (0 Bft) NO 313 0 min 0,000 mm 0 W/m -0,4 C -0,1 C 4,8 km/h (1 Bft)
14/12/2018 08:20 -0,1 C 98 % 1016,7 hPa 0,0 mm 1,0 km/h (0 Bft) NO 316 0 min 0,000 mm 0 W/m -0,4 C -0,1 C 8,0 km/h (2 Bft)
14/12/2018 08:15 -0,1 C 98 % 1016,7 hPa 0,0 mm 1,8 km/h (1 Bft) NO 310 0 min 0,000 mm 0 W/m -0,4 C -0,1 C 6,4 km/h (2 Bft)
14/12/2018 08:10 -0,1 C 98 % 1016,7 hPa 0,0 mm 2,1 km/h (1 Bft) NO 312 0 min 0,000 mm 0 W/m -0,4 C -0,1 C 6,4 km/h (2 Bft)
14/12/2018 08:05 -0,2 C 98 % 1016,6 hPa 0,0 mm 0,1 km/h (0 Bft) NO 324 0 min 0,000 mm 0 W/m -0,5 C -0,2 C 3,2 km/h (1 Bft)
14/12/2018 08:00 -0,2 C 98 % 1016,5 hPa 0,0 mm 1,6 km/h (1 Bft) NO 322 0 min 0,000 mm 0 W/m -0,5 C -0,2 C 6,4 km/h (2 Bft)
14/12/2018 07:55 -0,2 C 98 % 1016,4 hPa 0,0 mm 1,4 km/h (1 Bft) NO 318 0 min 0,000 mm 0 W/m -0,5 C -0,2 C 8,0 km/h (2 Bft)
14/12/2018 07:50 -0,1 C 98 % 1016,3 hPa 0,0 mm 1,6 km/h (1 Bft) NO 312 0 min 0,000 mm 0 W/m -0,4 C -0,1 C 6,4 km/h (2 Bft)
14/12/2018 07:45 -0,1 C 98 % 1016,3 hPa 0,0 mm 2,2 km/h (1 Bft) N-NO 334 0 min 0,000 mm 0 W/m -0,4 C -0,1 C 8,0 km/h (2 Bft)
14/12/2018 07:40 0,0 C 98 % 1016,2 hPa 0,0 mm 2,4 km/h (1 Bft) O-NO 303 0 min 0,000 mm 0 W/m -0,3 C 0,0 C 9,7 km/h (2 Bft)
14/12/2018 07:35 0,1 C 98 % 1016,2 hPa 0,0 mm 1,0 km/h (0 Bft) NO 316 0 min 0,000 mm 0 W/m -0,2 C 0,1 C 6,4 km/h (2 Bft)
14/12/2018 07:30 0,1 C 98 % 1016,1 hPa 0,0 mm 0,0 km/h (0 Bft) O-NO 292 0 min 0,000 mm 0 W/m -0,2 C 0,1 C 0,0 km/h (0 Bft)
14/12/2018 07:25 0,2 C 98 % 1015,8 hPa 0,0 mm 1,8 km/h (1 Bft) O-NO 294 0 min 0,000 mm 0 W/m -0,1 C 0,2 C 8,0 km/h (2 Bft)
14/12/2018 07:20 0,3 C 98 % 1015,8 hPa 0,0 mm 0,9 km/h (0 Bft) O-NO 293 0 min 0,000 mm 0 W/m 0,0 C 0,3 C 3,2 km/h (1 Bft)
14/12/2018 07:15 0,3 C 98 % 1015,5 hPa 0,0 mm 1,6 km/h (1 Bft) O-NO 293 0 min 0,000 mm 0 W/m 0,0 C 0,3 C 8,0 km/h (2 Bft)
14/12/2018 07:10 0,4 C 98 % 1015,6 hPa 0,0 mm 1,0 km/h (0 Bft) O-NO 303 0 min 0,000 mm 0 W/m 0,1 C 0,4 C 8,0 km/h (2 Bft)
14/12/2018 07:05 0,4 C 98 % 1015,5 hPa 0,0 mm 0,0 km/h (0 Bft) O 273 0 min 0,000 mm 0 W/m 0,1 C 0,4 C 0,0 km/h (0 Bft)
14/12/2018 07:00 0,3 C 98 % 1015,4 hPa 0,0 mm 0,0 km/h (0 Bft) O 276 0 min 0,000 mm 0 W/m 0,0 C 0,3 C 0,0 km/h (0 Bft)
14/12/2018 06:55 0,3 C 98 % 1015,3 hPa 0,0 mm 0,2 km/h (0 Bft) O 274 0 min 0,000 mm 0 W/m 0,0 C 0,3 C 3,2 km/h (1 Bft)
14/12/2018 06:50 0,2 C 98 % 1015,2 hPa 0,0 mm 1,3 km/h (1 Bft) O 274 0 min 0,000 mm 0 W/m -0,1 C 0,2 C 6,4 km/h (2 Bft)
14/12/2018 06:45 0,2 C 98 % 1015,1 hPa 0,0 mm 2,2 km/h (1 Bft) O 274 0 min 0,000 mm 0 W/m -0,1 C 0,2 C 8,0 km/h (2 Bft)
14/12/2018 06:40 0,2 C 98 % 1014,9 hPa 0,0 mm 0,0 km/h (0 Bft) O 275 0 min 0,000 mm 0 W/m -0,1 C 0,2 C 0,0 km/h (0 Bft)
14/12/2018 06:35 0,3 C 98 % 1014,9 hPa 0,0 mm 0,0 km/h (0 Bft) O 276 0 min 0,000 mm 0 W/m 0,0 C 0,3 C 0,0 km/h (0 Bft)
14/12/2018 06:30 0,4 C 98 % 1014,9 hPa 0,0 mm 0,0 km/h (0 Bft) O 278 0 min 0,000 mm 0 W/m 0,1 C 0,4 C 0,0 km/h (0 Bft)
14/12/2018 06:25 0,5 C 98 % 1014,8 hPa 0,0 mm 0,0 km/h (0 Bft) O 276 0 min 0,000 mm 0 W/m 0,2 C 0,5 C 0,0 km/h (0 Bft)
14/12/2018 06:20 0,5 C 98 % 1014,7 hPa 0,0 mm 0,0 km/h (0 Bft) O 275 0 min 0,000 mm 0 W/m 0,2 C 0,5 C 0,0 km/h (0 Bft)
14/12/2018 06:15 0,5 C 98 % 1014,7 hPa 0,0 mm 0,0 km/h (0 Bft) O 276 0 min 0,000 mm 0 W/m 0,2 C 0,5 C 0,0 km/h (0 Bft)
14/12/2018 06:10 0,6 C 98 % 1014,5 hPa 0,0 mm 0,0 km/h (0 Bft) O 276 0 min 0,000 mm 0 W/m 0,3 C 0,6 C 0,0 km/h (0 Bft)
14/12/2018 06:05 0,6 C 98 % 1014,5 hPa 0,0 mm 0,0 km/h (0 Bft) O 278 0 min 0,000 mm 0 W/m 0,3 C 0,6 C 0,0 km/h (0 Bft)
14/12/2018 06:00 0,6 C 98 % 1014,5 hPa 0,0 mm 0,0 km/h (0 Bft) O 278 0 min 0,000 mm 0 W/m 0,3 C 0,6 C 0,0 km/h (0 Bft)
14/12/2018 05:55 0,6 C 98 % 1014,6 hPa 0,0 mm 0,0 km/h (0 Bft) O 274 0 min 0,000 mm 0 W/m 0,3 C 0,6 C 0,0 km/h (0 Bft)
14/12/2018 05:50 0,7 C 98 % 1014,5 hPa 0,0 mm 0,0 km/h (0 Bft) O 276 0 min 0,000 mm 0 W/m 0,4 C 0,7 C 0,0 km/h (0 Bft)
14/12/2018 05:45 0,7 C 98 % 1014,4 hPa 0,0 mm 0,0 km/h (0 Bft) O 278 0 min 0,000 mm 0 W/m 0,4 C 0,7 C 0,0 km/h (0 Bft)
14/12/2018 05:40 0,7 C 98 % 1014,2 hPa 0,0 mm 0,0 km/h (0 Bft) O 276 0 min 0,000 mm 0 W/m 0,4 C 0,7 C 0,0 km/h (0 Bft)
14/12/2018 05:35 0,8 C 98 % 1014,2 hPa 0,0 mm 0,0 km/h (0 Bft) O 276 0 min 0,000 mm 0 W/m 0,5 C 0,8 C 0,0 km/h (0 Bft)
14/12/2018 05:30 0,8 C 98 % 1014,3 hPa 0,0 mm 0,0 km/h (0 Bft) O 276 0 min 0,000 mm 0 W/m 0,5 C 0,8 C 0,0 km/h (0 Bft)
14/12/2018 05:25 0,8 C 98 % 1014,3 hPa 0,0 mm 0,0 km/h (0 Bft) O 278 0 min 0,000 mm 0 W/m 0,5 C 0,8 C 0,0 km/h (0 Bft)
14/12/2018 05:20 0,8 C 98 % 1014,3 hPa 0,0 mm 0,0 km/h (0 Bft) O 278 0 min 0,000 mm 0 W/m 0,5 C 0,8 C 0,0 km/h (0 Bft)
14/12/2018 05:15 0,8 C 98 % 1014,3 hPa 0,0 mm 0,0 km/h (0 Bft) O 278 0 min 0,000 mm 0 W/m 0,5 C 0,8 C 0,0 km/h (0 Bft)
14/12/2018 05:10 0,8 C 98 % 1014,3 hPa 0,0 mm 0,0 km/h (0 Bft) O 276 0 min 0,000 mm 0 W/m 0,5 C 0,8 C 0,0 km/h (0 Bft)
14/12/2018 05:05 0,7 C 98 % 1014,2 hPa 0,0 mm 0,0 km/h (0 Bft) NO 324 0 min 0,000 mm 0 W/m 0,4 C 0,7 C 0,0 km/h (0 Bft)
14/12/2018 05:00 0,7 C 98 % 1014,1 hPa 0,0 mm 0,0 km/h (0 Bft) NO 324 0 min 0,000 mm 0 W/m 0,4 C 0,7 C 0,0 km/h (0 Bft)
14/12/2018 04:55 0,7 C 98 % 1014,2 hPa 0,0 mm 0,0 km/h (0 Bft) NO 324 0 min 0,000 mm 0 W/m 0,4 C 0,7 C 0,0 km/h (0 Bft)
14/12/2018 04:50 0,7 C 98 % 1014,0 hPa 0,0 mm 0,0 km/h (0 Bft) NO 323 0 min 0,000 mm 0 W/m 0,4 C 0,7 C 0,0 km/h (0 Bft)
14/12/2018 04:45 0,7 C 98 % 1014,1 hPa 0,0 mm 0,0 km/h (0 Bft) NO 324 0 min 0,000 mm 0 W/m 0,4 C 0,7 C 0,0 km/h (0 Bft)
14/12/2018 04:40 0,7 C 98 % 1014,0 hPa 0,0 mm 0,0 km/h (0 Bft) NO 325 0 min 0,000 mm 0 W/m 0,4 C 0,7 C 0,0 km/h (0 Bft)
14/12/2018 04:35 0,6 C 98 % 1014,1 hPa 0,0 mm 0,0 km/h (0 Bft) NO 324 0 min 0,000 mm 0 W/m 0,3 C 0,6 C 0,0 km/h (0 Bft)
14/12/2018 04:30 0,7 C 98 % 1014,1 hPa 0,0 mm 0,0 km/h (0 Bft) NO 324 0 min 0,000 mm 0 W/m 0,4 C 0,7 C 0,0 km/h (0 Bft)
14/12/2018 04:25 0,7 C 98 % 1014,1 hPa 0,0 mm 0,0 km/h (0 Bft) NO 323 0 min 0,000 mm 0 W/m 0,4 C 0,7 C 0,0 km/h (0 Bft)
14/12/2018 04:20 0,7 C 98 % 1014,0 hPa 0,0 mm 0,0 km/h (0 Bft) NO 324 0 min 0,000 mm 0 W/m 0,4 C 0,7 C 0,0 km/h (0 Bft)
14/12/2018 04:15 0,8 C 98 % 1014,0 hPa 0,0 mm 0,0 km/h (0 Bft) NO 326 0 min 0,000 mm 0 W/m 0,5 C 0,8 C 0,0 km/h (0 Bft)
14/12/2018 04:10 0,9 C 98 % 1014,0 hPa 0,0 mm 0,0 km/h (0 Bft) NO 325 0 min 0,000 mm 0 W/m 0,6 C 0,9 C 0,0 km/h (0 Bft)
14/12/2018 04:05 1,0 C 97 % 1014,0 hPa 0,0 mm 0,0 km/h (0 Bft) NO 325 0 min 0,000 mm 0 W/m 0,6 C 1,0 C 0,0 km/h (0 Bft)
14/12/2018 04:00 1,0 C 98 % 1014,0 hPa 0,0 mm 0,0 km/h (0 Bft) NO 325 0 min 0,000 mm 0 W/m 0,7 C 1,0 C 0,0 km/h (0 Bft)
14/12/2018 03:55 1,1 C 97 % 1014,0 hPa 0,0 mm 0,0 km/h (0 Bft) NO 325 0 min 0,000 mm 0 W/m 0,7 C 1,1 C 0,0 km/h (0 Bft)
14/12/2018 03:50 1,1 C 97 % 1014,0 hPa 0,0 mm 0,0 km/h (0 Bft) NO 324 0 min 0,000 mm 0 W/m 0,7 C 1,1 C 0,0 km/h (0 Bft)
14/12/2018 03:45 1,2 C 98 % 1014,0 hPa 0,0 mm 0,0 km/h (0 Bft) NO 324 0 min 0,000 mm 0 W/m 0,9 C 1,2 C 0,0 km/h (0 Bft)
14/12/2018 03:40 1,3 C 98 % 1014,0 hPa 0,0 mm 0,0 km/h (0 Bft) NO 325 0 min 0,000 mm 0 W/m 1,0 C 1,3 C 0,0 km/h (0 Bft)
14/12/2018 03:35 1,4 C 97 % 1013,9 hPa 0,0 mm 0,0 km/h (0 Bft) NO 324 0 min 0,000 mm 0 W/m 1,0 C 1,4 C 0,0 km/h (0 Bft)
14/12/2018 03:30 1,5 C 97 % 1013,9 hPa 0,0 mm 0,0 km/h (0 Bft) NO 324 0 min 0,000 mm 0 W/m 1,1 C 1,5 C 0,0 km/h (0 Bft)
14/12/2018 03:25 1,6 C 98 % 1014,0 hPa 0,0 mm 0,0 km/h (0 Bft) NO 324 0 min 0,000 mm 0 W/m 1,3 C 1,6 C 0,0 km/h (0 Bft)
14/12/2018 03:20 1,8 C 97 % 1013,9 hPa 0,0 mm 0,0 km/h (0 Bft) NO 324 0 min 0,000 mm 0 W/m 1,4 C 1,8 C 0,0 km/h (0 Bft)
14/12/2018 03:15 1,9 C 97 % 1013,9 hPa 0,0 mm 0,0 km/h (0 Bft) NO 324 0 min 0,000 mm 0 W/m 1,5 C 1,9 C 0,0 km/h (0 Bft)
14/12/2018 03:10 2,0 C 98 % 1013,8 hPa 0,0 mm 0,0 km/h (0 Bft) NO 324 0 min 0,000 mm 0 W/m 1,7 C 2,0 C 0,0 km/h (0 Bft)
14/12/2018 03:05 2,0 C 98 % 1013,7 hPa 0,0 mm 0,0 km/h (0 Bft) NO 325 0 min 0,000 mm 0 W/m 1,7 C 2,0 C 0,0 km/h (0 Bft)
14/12/2018 03:00 2,1 C 98 % 1013,6 hPa 0,0 mm 0,0 km/h (0 Bft) NO 324 0 min 0,000 mm 0 W/m 1,8 C 2,1 C 0,0 km/h (0 Bft)
14/12/2018 02:55 2,2 C 98 % 1013,6 hPa 0,0 mm 0,0 km/h (0 Bft) NO 323 0 min 0,000 mm 0 W/m 1,9 C 2,2 C 0,0 km/h (0 Bft)
14/12/2018 02:50 2,3 C 98 % 1013,5 hPa 0,0 mm 0,0 km/h (0 Bft) NO 326 0 min 0,000 mm 0 W/m 2,0 C 2,3 C 0,0 km/h (0 Bft)
14/12/2018 02:45 2,5 C 98 % 1013,5 hPa 0,0 mm 0,0 km/h (0 Bft) NO 324 0 min 0,000 mm 0 W/m 2,2 C 2,5 C 0,0 km/h (0 Bft)
14/12/2018 02:40 2,6 C 98 % 1013,4 hPa 0,0 mm 0,0 km/h (0 Bft) NO 324 0 min 0,000 mm 0 W/m 2,3 C 2,6 C 0,0 km/h (0 Bft)
14/12/2018 02:35 2,7 C 98 % 1013,3 hPa 0,0 mm 0,0 km/h (0 Bft) NO 324 0 min 0,000 mm 0 W/m 2,4 C 2,7 C 0,0 km/h (0 Bft)
14/12/2018 02:30 2,7 C 98 % 1013,3 hPa 0,0 mm 0,0 km/h (0 Bft) NO 325 0 min 0,000 mm 0 W/m 2,4 C 2,7 C 0,0 km/h (0 Bft)
14/12/2018 02:25 2,7 C 98 % 1013,4 hPa 0,0 mm 0,0 km/h (0 Bft) NO 325 0 min 0,000 mm 0 W/m 2,4 C 2,7 C 0,0 km/h (0 Bft)
14/12/2018 02:20 2,7 C 98 % 1013,4 hPa 0,0 mm 0,0 km/h (0 Bft) N-NO 348 0 min 0,000 mm 0 W/m 2,4 C 2,7 C 0,0 km/h (0 Bft)
14/12/2018 02:15 2,7 C 98 % 1013,3 hPa 0,0 mm 0,0 km/h (0 Bft) N-NO 348 0 min 0,000 mm 0 W/m 2,4 C 2,7 C 0,0 km/h (0 Bft)
14/12/2018 02:10 2,7 C 98 % 1013,2 hPa 0,0 mm 0,0 km/h (0 Bft) N-NO 348 0 min 0,000 mm 0 W/m 2,4 C 2,7 C 0,0 km/h (0 Bft)
14/12/2018 02:05 2,8 C 98 % 1013,1 hPa 0,0 mm 0,0 km/h (0 Bft) N 349 0 min 0,000 mm 0 W/m 2,5 C 2,8 C 0,0 km/h (0 Bft)
14/12/2018 02:00 2,9 C 98 % 1013,0 hPa 0,0 mm 0,0 km/h (0 Bft) N 349 0 min 0,000 mm 0 W/m 2,6 C 2,9 C 0,0 km/h (0 Bft)
14/12/2018 01:55 2,9 C 98 % 1013,1 hPa 0,0 mm 0,0 km/h (0 Bft) N 349 0 min 0,000 mm 0 W/m 2,6 C 2,9 C 0,0 km/h (0 Bft)
14/12/2018 01:50 2,9 C 98 % 1013,1 hPa 0,0 mm 0,0 km/h (0 Bft) N 349 0 min 0,000 mm 0 W/m 2,6 C 2,9 C 0,0 km/h (0 Bft)
14/12/2018 01:45 2,9 C 98 % 1013,1 hPa 0,0 mm 0,0 km/h (0 Bft) N 349 0 min 0,000 mm 0 W/m 2,6 C 2,9 C 0,0 km/h (0 Bft)
14/12/2018 01:40 3,0 C 98 % 1013,0 hPa 0,0 mm 0,0 km/h (0 Bft) N 349 0 min 0,000 mm 0 W/m 2,7 C 3,0 C 0,0 km/h (0 Bft)
14/12/2018 01:35 3,0 C 98 % 1012,9 hPa 0,0 mm 0,0 km/h (0 Bft) N-NO 348 0 min 0,000 mm 0 W/m 2,7 C 3,0 C 0,0 km/h (0 Bft)
14/12/2018 01:30 3,1 C 98 % 1012,9 hPa 0,0 mm 0,0 km/h (0 Bft) N 349 0 min 0,000 mm 0 W/m 2,8 C 3,1 C 0,0 km/h (0 Bft)
14/12/2018 01:25 3,1 C 98 % 1012,9 hPa 0,0 mm 0,0 km/h (0 Bft) N 349 0 min 0,000 mm 0 W/m 2,8 C 3,1 C 0,0 km/h (0 Bft)
14/12/2018 01:20 3,1 C 98 % 1012,9 hPa 0,0 mm 0,0 km/h (0 Bft) N 349 0 min 0,000 mm 0 W/m 2,8 C 3,1 C 0,0 km/h (0 Bft)
14/12/2018 01:15 3,2 C 98 % 1012,8 hPa 0,0 mm 0,0 km/h (0 Bft) N 349 0 min 0,000 mm 0 W/m 2,9 C 3,2 C 0,0 km/h (0 Bft)
14/12/2018 01:10 3,1 C 98 % 1012,8 hPa 0,0 mm 0,0 km/h (0 Bft) N-NO 348 0 min 0,000 mm 0 W/m 2,8 C 3,1 C 0,0 km/h (0 Bft)
14/12/2018 01:05 3,2 C 98 % 1012,8 hPa 0,0 mm 0,0 km/h (0 Bft) N 349 0 min 0,000 mm 0 W/m 2,9 C 3,2 C 0,0 km/h (0 Bft)
14/12/2018 01:00 3,2 C 97 % 1012,8 hPa 0,0 mm 0,0 km/h (0 Bft) N-NO 348 0 min 0,000 mm 0 W/m 2,8 C 3,2 C 0,0 km/h (0 Bft)
14/12/2018 00:55 3,3 C 97 % 1012,7 hPa 0,0 mm 0,0 km/h (0 Bft) N 349 0 min 0,000 mm 0 W/m 2,9 C 3,3 C 0,0 km/h (0 Bft)
14/12/2018 00:50 3,5 C 98 % 1012,7 hPa 0,0 mm 0,0 km/h (0 Bft) N 349 0 min 0,000 mm 0 W/m 3,2 C 3,5 C 0,0 km/h (0 Bft)
14/12/2018 00:45 3,7 C 97 % 1012,7 hPa 0,0 mm 0,0 km/h (0 Bft) E-NE 60 0 min 0,000 mm 0 W/m 3,3 C 3,7 C 0,0 km/h (0 Bft)
14/12/2018 00:40 3,9 C 98 % 1012,7 hPa 0,0 mm 0,0 km/h (0 Bft) E-NE 59 0 min 0,000 mm 0 W/m 3,6 C 3,9 C 0,0 km/h (0 Bft)
14/12/2018 00:35 4,1 C 98 % 1012,6 hPa 0,0 mm 0,0 km/h (0 Bft) E-NE 59 0 min 0,000 mm 0 W/m 3,8 C 4,1 C 0,0 km/h (0 Bft)
14/12/2018 00:30 4,2 C 98 % 1012,7 hPa 0,0 mm 0,0 km/h (0 Bft) E-NE 60 0 min 0,000 mm 0 W/m 3,9 C 4,2 C 0,0 km/h (0 Bft)
14/12/2018 00:25 4,3 C 98 % 1012,5 hPa 0,0 mm 0,0 km/h (0 Bft) E-NE 60 0 min 0,000 mm 0 W/m 4,0 C 4,3 C 0,0 km/h (0 Bft)
14/12/2018 00:20 4,3 C 98 % 1012,4 hPa 0,0 mm 0,0 km/h (0 Bft) E-NE 61 0 min 0,000 mm 0 W/m 4,0 C 4,3 C 0,0 km/h (0 Bft)
14/12/2018 00:15 4,3 C 98 % 1012,3 hPa 0,0 mm 0,0 km/h (0 Bft) E-NE 62 0 min 0,000 mm 0 W/m 4,0 C 4,3 C 0,0 km/h (0 Bft)
14/12/2018 00:10 4,3 C 98 % 1012,2 hPa 0,0 mm 0,0 km/h (0 Bft) E-NE 62 0 min 0,000 mm 0 W/m 4,0 C 4,3 C 0,0 km/h (0 Bft)
14/12/2018 00:05 4,3 C 98 % 1012,2 hPa 0,0 mm 0,0 km/h (0 Bft) E-NE 62 0 min 0,000 mm 0 W/m 4,0 C 4,3 C 0,0 km/h (0 Bft)
14/12/2018 00:00 4,3 C 98 % 1012,1 hPa 0,0 mm 0,0 km/h (0 Bft) E 95 0 min 0,000 mm 0 W/m 4,0 C 4,3 C 0,0 km/h (0 Bft)
_ Min-Heure 07:55 00:45 00:00 - 00:00 - - - - - 07:55 10:50 00:00
Minimum _ -0,2 C 97 % 1012,1 hPa - 0,0 km/h (0 Bft) - - - - - -0,5 C -1,7 C 0,0 km/h (0 Bft)
_ Max-Heure 00:00 00:00 20:10 00:00 14:10 - - 00:00 12:05 12:40 00:00 00:00 09:00
Maximum _ 4,3 C 98 % 1024,2 hPa 0,0 mm 6,2 km/h
NE (2 Bft)
- - 0 min 0,026 mm 88 W/m 4,0 C 4,3 C 11,3 km/h
NO (2 Bft)
Moyenne _ 0,8 C 98 % 1018,2 hPa #0,0 mm 1,2 km/h (1 Bft) NO - #0 min. #0,152 mm 47 W/m 0,5 C 0,7 C 3,6 km/h (1 Bft)